TimeEDT,TemperatureF,Dew PointF,Humidity,Sea Level PressureIn,VisibilityMPH,Wind Direction,Wind SpeedMPH,Gust SpeedMPH,PrecipitationIn,Events,Conditions,WindDirDegrees,DateUTC
12:05 AM,64.4,64.4,100,29.88,10.0,Calm,Calm,-,N/A,,Overcast,0,2013-09-03 04:05:00
12:25 AM,64.4,64.4,100,29.88,10.0,Calm,Calm,-,N/A,,Mostly Cloudy,0,2013-09-03 04:25:00
12:45 AM,62.6,62.6,100,29.88,10.0,Calm,Calm,-,N/A,,Mostly Cloudy,0,2013-09-03 04:45:00
1:05 AM,62.6,62.6,100,29.89,10.0,Calm,Calm,-,N/A,,Overcast,0,2013-09-03 05:05:00
1:25 AM,62.6,62.6,100,29.89,10.0,Calm,Calm,-,N/A,,Overcast,0,2013-09-03 05:25:00
1:45 AM,62.6,62.6,100,29.89,10.0,Calm,Calm,-,N/A,,Overcast,0,2013-09-03 05:45:00
2:05 AM,62.6,60.8,94,29.89,10.0,Calm,Calm,-,N/A,,Mostly Cloudy,0,2013-09-03 06:05:00
2:25 AM,62.6,60.8,94,29.89,10.0,Calm,Calm,-,N/A,,Mostly Cloudy,0,2013-09-03 06:25:00
2:45 AM,62.6,60.8,94,29.89,10.0,Calm,Calm,-,N/A,,Overcast,0,2013-09-03 06:45:00
3:05 AM,60.8,59.0,94,29.89,10.0,NNW,4.6,-,N/A,,Mostly Cloudy,330,2013-09-03 07:05:00
3:25 AM,60.8,59.0,94,29.89,10.0,Calm,Calm,-,N/A,,Mostly Cloudy,0,2013-09-03 07:25:00
3:45 AM,60.8,59.0,94,29.90,10.0,NW,3.5,-,N/A,,Overcast,310,2013-09-03 07:45:00
4:05 AM,60.8,59.0,94,29.89,10.0,Calm,Calm,-,N/A,,Mostly Cloudy,0,2013-09-03 08:05:00
4:25 AM,60.8,59.0,94,29.89,10.0,Calm,Calm,-,N/A,,Mostly Cloudy,0,2013-09-03 08:25:00
4:45 AM,60.8,59.0,94,29.89,10.0,NW,3.5,-,N/A,,Overcast,310,2013-09-03 08:45:00
5:05 AM,59.0,57.2,94,29.89,10.0,WNW,3.5,-,N/A,,Mostly Cloudy,300,2013-09-03 09:05:00
5:25 AM,59.0,57.2,94,29.90,10.0,Calm,Calm,-,N/A,,Mostly Cloudy,0,2013-09-03 09:25:00
5:45 AM,59.0,59.0,100,29.91,10.0,Calm,Calm,-,N/A,,Mostly Cloudy,0,2013-09-03 09:45:00
6:05 AM,57.2,57.2,100,29.91,10.0,Calm,Calm,-,N/A,,Overcast,0,2013-09-03 10:05:00
6:25 AM,57.2,57.2,100,29.92,10.0,Calm,Calm,-,N/A,,Overcast,0,2013-09-03 10:25:00
6:45 AM,57.2,57.2,100,29.93,10.0,Calm,Calm,-,N/A,,Overcast,0,2013-09-03 10:45:00
7:05 AM,57.2,57.2,100,29.94,10.0,Calm,Calm,-,N/A,,Mostly Cloudy,0,2013-09-03 11:05:00
7:25 AM,57.2,57.2,100,29.95,10.0,Calm,Calm,-,N/A,,Overcast,0,2013-09-03 11:25:00
7:45 AM,59.0,59.0,100,29.95,10.0,Calm,Calm,-,N/A,,Overcast,0,2013-09-03 11:45:00
8:05 AM,59.0,59.0,100,29.96,10.0,Calm,Calm,-,N/A,,Overcast,0,2013-09-03 12:05:00
8:28 AM,60.1,57.6,91,29.96,10.0,NW,3.5,-,N/A,,Overcast,320,2013-09-03 12:28:00
8:34 AM,60.1,57.6,91,29.96,10.0,NW,4.6,-,N/A,,Overcast,310,2013-09-03 12:34:00
8:53 AM,60.3,57.4,90,29.97,10.0,Calm,Calm,-,N/A,,Overcast,0,2013-09-03 12:53:00
9:14 AM,61.2,57.6,88,29.97,10.0,WNW,6.9,-,N/A,,Overcast,290,2013-09-03 13:14:00
9:33 AM,61.9,54.9,78,29.98,10.0,WNW,9.2,16.1,N/A,,Overcast,290,2013-09-03 13:33:00
9:53 AM,61.7,53.1,73,29.98,10.0,WNW,13.8,18.4,N/A,,Overcast,290,2013-09-03 13:53:00
10:14 AM,62.8,53.1,71,29.99,10.0,WNW,6.9,-,N/A,,Overcast,300,2013-09-03 14:14:00
10:33 AM,62.4,51.1,66,29.99,10.0,West,12.7,-,N/A,,Overcast,280,2013-09-03 14:33:00
10:53 AM,61.9,50.7,67,29.99,10.0,WNW,5.8,-,N/A,,Overcast,300,2013-09-03 14:53:00
11:14 AM,61.9,51.3,68,30.00,10.0,West,12.7,17.3,N/A,,Overcast,280,2013-09-03 15:14:00
11:34 AM,61.2,51.6,71,30.00,10.0,WNW,9.2,-,N/A,,Overcast,290,2013-09-03 15:34:00
11:53 AM,60.6,51.6,72,30.01,10.0,WNW,5.8,-,N/A,,Overcast,290,2013-09-03 15:53:00
12:14 PM,61.0,52.2,73,30.01,10.0,WNW,9.2,-,N/A,,Overcast,290,2013-09-03 16:14:00
12:33 PM,60.4,52.7,76,30.01,10.0,West,10.4,-,N/A,,Overcast,280,2013-09-03 16:33:00
12:54 PM,59.4,54.7,84,30.01,5.0,West,6.9,-,N/A,,Overcast,270,2013-09-03 16:54:00
1:14 PM,60.1,54.0,80,30.01,10.0,West,9.2,-,N/A,,Overcast,280,2013-09-03 17:14:00
1:33 PM,60.1,53.6,79,30.01,10.0,West,10.4,-,N/A,,Overcast,280,2013-09-03 17:33:00
1:53 PM,59.9,54.0,81,30.01,10.0,West,9.2,-,N/A,,Overcast,270,2013-09-03 17:53:00
2:14 PM,59.5,54.5,83,30.01,7.0,West,6.9,-,N/A,,Overcast,280,2013-09-03 18:14:00
2:34 PM,60.1,54.0,80,30.01,10.0,West,8.1,-,N/A,,Overcast,280,2013-09-03 18:34:00
2:54 PM,61.2,54.1,78,30.01,10.0,WNW,5.8,-,N/A,,Overcast,300,2013-09-03 18:54:00
3:14 PM,61.7,53.6,75,30.01,10.0,West,8.1,-,N/A,,Overcast,280,2013-09-03 19:14:00
3:33 PM,61.7,53.6,75,30.01,10.0,West,8.1,-,N/A,,Overcast,280,2013-09-03 19:33:00
3:54 PM,61.7,53.8,75,30.01,10.0,West,9.2,-,N/A,,Overcast,280,2013-09-03 19:54:00
4:14 PM,62.6,54.0,73,30.01,10.0,West,9.2,-,N/A,,Overcast,270,2013-09-03 20:14:00
4:33 PM,62.1,54.3,76,30.01,10.0,West,9.2,-,N/A,,Overcast,270,2013-09-03 20:33:00
4:53 PM,62.2,54.5,76,30.01,10.0,West,5.8,-,N/A,,Overcast,270,2013-09-03 20:53:00
5:14 PM,62.6,54.1,74,30.01,10.0,West,5.8,-,N/A,,Overcast,280,2013-09-03 21:14:00
5:33 PM,63.9,55.2,73,30.01,10.0,West,3.5,-,N/A,,Overcast,280,2013-09-03 21:33:00
5:53 PM,63.5,53.6,70,30.01,10.0,WNW,5.8,-,N/A,,Overcast,290,2013-09-03 21:53:00
6:14 PM,63.0,55.2,76,30.02,10.0,West,4.6,-,N/A,,Overcast,260,2013-09-03 22:14:00
6:34 PM,63.0,54.7,74,30.01,10.0,West,3.5,-,N/A,,Overcast,260,2013-09-03 22:34:00
6:53 PM,63.0,54.7,74,30.01,10.0,Calm,Calm,-,N/A,,Overcast,0,2013-09-03 22:53:00
7:14 PM,63.5,53.2,69,30.01,10.0,WNW,4.6,-,N/A,,Overcast,290,2013-09-03 23:14:00
7:33 PM,62.4,52.7,70,30.02,10.0,Calm,Calm,-,N/A,,Scattered Clouds,0,2013-09-03 23:33:00
7:54 PM,58.6,54.7,87,30.03,10.0,Calm,Calm,-,N/A,,Clear,0,2013-09-03 23:54:00
8:14 PM,57.7,56.3,95,30.03,10.0,Calm,Calm,-,N/A,,Clear,0,2013-09-04 00:14:00
8:33 PM,56.8,57.0,100,30.04,10.0,Calm,Calm,-,N/A,,Clear,0,2013-09-04 00:33:00
8:53 PM,56.3,56.5,100,30.04,10.0,Calm,Calm,-,N/A,,Clear,0,2013-09-04 00:53:00
9:14 PM,56.3,56.5,100,30.05,10.0,Calm,Calm,-,N/A,,Clear,0,2013-09-04 01:14:00
9:34 PM,55.2,55.4,100,30.06,10.0,Calm,Calm,-,N/A,,Scattered Clouds,0,2013-09-04 01:34:00
9:53 PM,-9999,-9999,N/A,30.06,10.0,Calm,Calm,-,N/A,,Scattered Clouds,0,2013-09-04 01:53:00
10:14 PM,55.4,55.6,100,30.06,7.0,Calm,Calm,-,N/A,,Clear,0,2013-09-04 02:14:00
10:34 PM,55.4,55.6,100,30.06,7.0,Calm,Calm,-,N/A,,Clear,0,2013-09-04 02:34:00
10:53 PM,55.6,55.8,100,30.06,7.0,Calm,Calm,-,N/A,,Clear,0,2013-09-04 02:53:00
11:14 PM,54.0,54.1,100,30.06,7.0,Calm,Calm,-,N/A,,Clear,0,2013-09-04 03:14:00
11:33 PM,54.0,54.1,100,30.06,7.0,Calm,Calm,-,N/A,,Clear,0,2013-09-04 03:33:00
11:54 PM,56.3,56.3,100,30.06,7.0,SSW,3.5,-,N/A,,Clear,210,2013-09-04 03:54:00